EW9965 Weather Reports


time (UTC)temp
F
wind
direction
speed
knots
gust
knots
rain 1hr
in
rain 24hr
in
rain mn
in
humidity
%
barometer
mb
20260903091559 60 23 0.0 0.0 0.00 0.00 0.00 84 1014.7
20260903090053 60 23 0.0 0.0 0.00 0.00 0.00 84 1014.7
20260903084549 61 23 0.0 0.0 0.00 0.00 0.00 84 1014.9
20260903083051 61 19 0.0 0.0 0.00 0.00 0.00 83 1015.1
20260903081547 61 18 0.0 0.9 0.00 0.00 0.00 83 1015.2
20260903080045 62 8 0.0 1.7 0.00 0.00 0.00 83 1015.2
20260903074543 62 353 0.0 0.0 0.00 0.00 0.00 82 1015.2
20260903073041 62 5 0.0 0.0 0.00 0.00 0.00 81 1015.2
20260903071542 63 354 0.0 0.0 0.00 0.00 0.00 81 1015.2
20260903070038 63 8 0.0 0.0 0.00 0.00 0.00 80 1015.1
20260903064538 63 149 0.0 0.0 0.00 0.00 0.00 79 1015.2
20260903063037 64 149 0.0 0.0 0.00 0.00 0.00 77 1015.2
20260903061537 64 149 0.0 0.0 0.00 0.00 0.00 76 1015.2
20260903060042 65 149 0.0 0.0 0.00 0.00 0.00 74 1015.2
20260903054535 65 149 0.0 0.0 0.00 0.00 0.00 73 1015.1
20260903053038 66 149 0.0 0.0 0.00 0.00 0.00 72 1015.2
20260903051534 66 149 0.0 0.0 0.00 0.00 0.00 71 1015.3
20260903050037 67 149 0.0 0.0 0.00 0.00 0.00 70 1015.4
20260903044533 67 149 0.0 0.0 0.00 0.00 0.00 70 1015.3
20260903043032 68 149 0.0 0.0 0.00 0.00 0.00 69 1015.3
20260903041535 68 149 0.0 3.5 0.00 0.00 0.00 69 1015.2
20260903040031 69 166 0.0 3.5 0.00 0.00 0.00 69 1015.1
20260903034531 70 180 0.0 3.5 0.00 0.00 0.00 68 1014.9
20260903033031 70 185 0.0 0.9 0.00 0.00 0.00 66 1014.7
20260903031539 71 171 0.0 4.3 0.00 0.00 0.00 64 1014.6
20260903030030 71 180 0.9 4.3 0.00 0.00 0.00 61 1014.4
20260903024528 72 236 0.9 4.3 0.00 0.00 0.00 58 1014.4
20260903023031 73 214 0.9 4.3 0.00 0.00 0.00 57 1014.2
20260903021539 74 170 0.0 4.3 0.00 0.00 0.00 55 1014.1
20260903020033 76 207 0.0 7.8 0.00 0.00 0.00 54 1014.1
20260903014526 77 263 2.6 8.7 0.00 0.00 0.00 52 1014.0
20260903013025 78 227 2.6 7.0 0.00 0.00 0.00 50 1013.9
20260903011527 80 162 1.7 6.1 0.00 0.00 0.00 48 1013.8
20260903010028 81 207 0.9 6.1 0.00 0.00 0.00 46 1013.7
20260903004529 82 170 3.5 7.8 0.00 0.00 0.00 42 1013.6
20260903003021 83 217 1.7 11.3 0.00 0.00 0.00 42 1013.6
20260903001522 83 182 1.7 7.8 0.00 0.00 0.00 41 1013.6
20260903000035 84 117 3.5 7.8 0.00 0.00 0.00 42 1013.6
20260902234517 85 162 1.7 7.8 0.00 0.00 0.00 43 1013.6
20260902233016 85 155 2.6 7.8 0.00 0.00 0.00 41 1013.7
20260902231518 85 228 2.6 7.8 0.00 0.00 0.00 43 1013.9
20260902230011 86 190 2.6 7.8 0.00 0.00 0.00 40 1014.0
20260902224510 86 245 2.6 8.7 0.00 0.00 0.00 41 1014.1
20260902223019 86 125 5.2 10.4 0.00 0.00 0.00 41 1014.2
20260902221507 86 163 5.2 10.4 0.00 0.00 0.00 41 1014.3
20260902220013 87 243 1.7 9.6 0.00 0.00 0.00 40 1014.4
20260902214519 87 255 2.6 10.4 0.00 0.00 0.00 40 1014.3
20260902213004 88 211 4.3 10.4 0.00 0.00 0.00 38 1014.3
20260902211505 89 183 2.6 9.6 0.00 0.00 0.00 36 1014.2
20260902210010 90 186 3.5 8.7 0.00 0.00 0.00 35 1014.1
20260902204503 89 144 4.3 7.8 0.00 0.00 0.00 34 1014.2
20260902203059 90 210 3.5 7.8 0.00 0.00 0.00 32 1014.2
20260902201556 89 139 2.6 8.7 0.00 0.00 0.00 31 1014.4
20260902200053 88 169 3.5 12.2 0.00 0.00 0.00 35 1014.5
20260902194551 88 188 3.5 8.7 0.00 0.00 0.00 33 1014.9
20260902193051 88 165 2.6 7.0 0.00 0.00 0.00 34 1015.0
20260902191549 87 195 2.6 7.8 0.00 0.00 0.00 34 1015.3
20260902190043 85 144 3.5 7.8 0.00 0.00 0.00 35 1015.4
20260902184544 85 205 2.6 7.8 0.00 0.00 0.00 37 1015.6
20260902183043 83 235 2.6 6.1 0.00 0.00 0.00 45 1015.8
20260902181534 82 219 1.7 7.0 0.00 0.00 0.00 46 1015.8
20260902180035 81 159 1.7 6.1 0.00 0.00 0.00 49 1015.9
20260902174534 80 204 1.7 6.1 0.00 0.00 0.00 52 1015.8
20260902173034 78 221 2.6 7.8 0.00 0.00 0.00 57 1015.8
20260902171519 75 156 0.0 4.3 0.00 0.00 0.00 62 1015.8
20260902170012 75 249 0.9 3.5 0.00 0.00 0.00 65 1015.8
20260902164509 72 144 0.9 3.5 0.00 0.00 0.00 70 1015.8
20260902163004 70 128 0.0 1.7 0.00 0.00 0.00 71 1016.0
20260902161600 69 63 0.0 3.5 0.00 0.00 0.00 74 1016.3
20260902160104 68 160 0.0 3.5 0.00 0.00 0.00 76 1016.2
20260902154555 68 230 0.0 4.3 0.00 0.00 0.00 77 1016.2
20260902153055 68 163 1.7 4.3 0.00 0.00 0.00 77 1016.0
20260902151552 66 197 1.7 3.5 0.00 0.00 0.00 77 1016.1
20260902150047 63 340 0.0 0.9 0.00 0.00 0.00 80 1016.3
20260902144543 61 18 1.7 4.3 0.00 0.00 0.00 81 1016.0
20260902143040 60 355 3.5 5.2 0.00 0.00 0.00 82 1016.1
20260902141548 59 36 0.9 4.3 0.00 0.00 0.00 84 1016.2
20260902140034 58 3 0.0 1.7 0.00 0.00 0.00 84 1016.1
20260902134531 58 6 0.0 0.0 0.00 0.00 0.00 84 1015.9
20260902133035 58 5 0.0 0.0 0.00 0.00 0.00 84 1015.7
20260902131526 59 5 0.0 0.0 0.00 0.00 0.00 84 1015.4
20260902130024 59 5 0.0 0.0 0.00 0.00 0.00 84 1015.1
20260902124526 60 5 0.0 3.5 0.00 0.00 0.00 84 1015.2
20260902123021 60 13 0.9 4.3 0.00 0.00 0.00 84 1015.3
20260902121518 61 1 0.0 3.5 0.00 0.00 0.00 83 1015.2
20260902120021 62 17 0.0 1.7 0.00 0.00 0.00 84 1015.1
20260902114516 63 36 0.0 1.7 0.00 0.00 0.00 83 1015.2
20260902113013 63 13 0.0 1.7 0.00 0.00 0.00 84 1015.3
20260902111513 63 36 0.9 2.6 0.00 0.00 0.00 83 1015.2
20260902110011 64 41 0.0 1.7 0.00 0.00 0.00 84 1015.3
20260902104516 64 7 0.9 2.6 0.00 0.00 0.00 84 1015.4
20260902103008 63 42 0.0 3.5 0.00 0.00 0.00 84 1015.6
20260902101509 63 20 0.0 0.0 0.00 0.00 0.00 85 1015.6
20260902100008 63 32 0.0 0.0 0.00 0.00 0.00 85 1015.7
20260902094506 63 5 0.0 1.7 0.00 0.00 0.00 85 1015.6
20260902093007 63 3 0.9 3.5 0.00 0.00 0.00 85 1015.6